Location: Seattle
(47.6064°N, 122.3308°W)
Time: 00:53:01
(UTC-08:00)

Tiros 1 - Pass Details

Date: 04 December 2020
Orbit: 630 x 663 km, 48.4° (Epoch: 28 January)

Event Time Altitude Azimuth Distance (km) Brightness Sun altitude
Rises 15:44:33 0° 267° (W) 2,994 11.5 3.8°
Reaches altitude 10° 15:46:54 10° 269° (W) 2,082 10.7 3.5°
Maximum altitude 15:51:43 81° 357° (N) 674 7.3 2.8°
Drops below altitude 10° 15:56:32 10° 85° (E) 2,073 9.3 2.2°
Sets 15:58:52 0° 86° (E) 2,981 10.0 1.9°
